DW0630 Weather Reports


Display with metric or nautical units.
time (UTC)temp
F
wind
direction
speed
MPH
gust
MPH
rain 1hr
in
rain 24hr
in
rain mn
in
humidity
%
barometer
mb
20260507144738 62 173 5.0 11.0 0.00 0.00 0.00 64 1014.8
20260507141643 61 179 8.0 15.0 0.00 0.00 0.00 64 1015.1
20260507140029 62 214 8.0 14.0 0.00 0.00 0.00 61 1015.0
20260507134515 60 185 9.0 14.0 0.00 0.00 0.00 62 1015.0
20260507133013 62 177 6.0 16.0 0.00 0.00 0.00 60 1015.1
20260507130029 61 195 6.0 11.0 0.00 0.00 0.00 61 1015.2
20260507124511 61 174 8.0 12.0 0.00 0.00 0.00 57 1015.3
20260507123013 62 188 6.0 14.0 0.00 0.00 0.00 56 1015.4
20260507121620 61 196 8.0 14.0 0.00 0.00 0.00 59 1015.4
20260507120018 58 190 7.0 11.0 0.00 0.00 0.00 65 1015.4
20260507114514 59 209 6.0 13.0 0.00 0.00 0.00 66 1015.5
20260507113013 59 181 9.0 17.0 0.00 0.00 0.00 65 1015.5
20260507111511 58 178 7.0 14.0 0.00 0.00 0.00 67 1015.5
20260507104546 59 212 9.0 15.0 0.00 0.00 0.00 68 1015.7
20260507101545 57 191 5.0 10.0 0.00 0.00 0.00 67 1015.6
20260507100011 58 157 5.0 12.0 0.00 0.00 0.00 70 1015.6
20260507094513 57 207 5.0 17.0 0.00 0.00 0.00 70 1015.6
20260507093012 56 174 4.0 10.0 0.00 0.00 0.00 73 1015.6
20260507091514 56 178 4.0 10.0 0.00 0.00 0.00 74 1015.7
20260507090057 56 201 5.0 10.0 0.00 0.00 0.00 76 1015.7
20260507083042 55 180 3.0 8.0 0.00 0.00 0.00 81 1015.7
20260507080013 53 163 2.0 8.0 0.00 0.00 0.00 82 1015.8
20260507074517 52 136 2.0 6.0 0.00 0.00 0.00 82 1015.6
20260507073027 51 111 3.0 7.0 0.00 0.00 0.00 82 1015.6
20260507071517 51 138 2.0 7.0 0.00 0.00 0.00 83 1015.6
20260507070027 50 122 2.0 6.0 0.00 0.00 0.00 84 1015.5
20260507064523 49 113 2.0 3.0 0.00 0.00 0.00 84 1015.5
20260507063012 48 232 1.0 2.0 0.00 0.00 0.00 84 1015.6
20260507061512 47 304 1.0 4.0 0.00 0.00 0.00 85 1015.6
20260507060018 46 127 2.0 7.0 0.00 0.00 0.00 85 1015.4
20260507054511 46 111 2.0 6.0 0.00 0.00 0.00 84 1015.3
20260507053022 46 112 1.0 6.0 0.00 0.00 0.00 83 1015.2
20260507051511 46 107 2.0 7.0 0.00 0.00 0.00 83 1015.0
20260507050031 46 98 2.0 6.0 0.00 0.00 0.00 82 1015.0
20260507044513 46 118 3.0 8.0 0.00 0.00 0.00 82 1014.9
20260507043012 46 121 4.0 7.0 0.00 0.00 0.00 81 1014.9
20260507041512 46 118 3.0 6.0 0.00 0.00 0.00 81 1014.9
20260507040013 46 121 3.0 7.0 0.00 0.00 0.00 81 1015.0
20260507033014 47 96 3.0 8.0 0.00 0.00 0.00 80 1014.8
20260507031512 47 109 2.0 4.0 0.00 0.00 0.00 80 1014.8
20260507024513 47 85 3.0 5.0 0.00 0.00 0.00 79 1014.8
20260507023033 47 95 2.0 3.0 0.00 0.00 0.00 79 1014.8
20260507021539 47 94 3.0 6.0 0.00 0.00 0.00 79 1014.8
20260507020021 47 93 3.0 4.0 0.00 0.00 0.00 80 1014.8
20260507014520 47 87 3.0 6.0 0.00 0.00 0.00 80 1014.8
20260507013039 47 92 3.0 4.0 0.00 0.00 0.00 81 1014.9
20260507011545 47 95 3.0 6.0 0.00 0.00 0.00 81 1014.8
20260507010012 47 96 1.0 3.0 0.00 0.00 0.00 82 1014.8
20260507004512 47 84 3.0 4.0 0.00 0.00 0.00 80 1014.8
20260507003032 47 81 2.0 4.0 0.00 0.00 0.00 82 1014.9
20260507001512 47 81 2.0 3.0 0.00 0.00 0.00 84 1015.0
20260507000015 47 81 3.0 4.0 0.00 0.00 0.00 84 1015.0
20260506233014 47 116 1.0 2.0 0.00 0.00 0.00 85 1014.9
20260506231517 47 116 1.0 3.0 0.00 0.00 0.00 85 1014.9
20260506230015 47 101 3.0 3.0 0.00 0.00 0.00 85 1015.0
20260506224513 47 170 1.0 2.0 0.00 0.00 0.00 84 1015.0
20260506223013 47 170 1.0 3.0 0.00 0.00 0.00 83 1014.9
20260506221512 47 170 0.0 2.0 0.00 0.00 0.00 82 1014.8
20260506220016 48 100 0.0 0.0 0.00 0.00 0.00 81 1014.8
20260506214515 49 100 0.0 2.0 0.00 0.00 0.00 80 1014.8
20260506211514 50 200 3.0 5.0 0.00 0.00 0.00 79 1014.7
20260506210027 50 200 3.0 5.0 0.00 0.00 0.00 79 1014.6
20260506204532 51 207 4.0 5.0 0.00 0.00 0.00 79 1014.5
20260506203024 51 195 4.0 5.0 0.00 0.00 0.00 78 1014.5
20260506201527 51 220 4.0 6.0 0.00 0.00 0.00 76 1014.4
20260506200038 51 195 3.0 4.0 0.00 0.00 0.00 73 1014.2
20260506194517 51 67 0.0 0.0 0.00 0.00 0.00 70 1014.1
20260506193029 53 67 0.0 0.0 0.00 0.00 0.00 70 1014.0
20260506191513 54 67 1.0 2.0 0.00 0.00 0.00 67 1013.9
20260506184517 56 67 2.0 4.0 0.00 0.00 0.00 61 1013.9
20260506183029 56 67 3.0 4.0 0.00 0.00 0.00 61 1013.8
20260506181606 56 40 3.0 5.0 0.00 0.00 0.00 61 1013.8
20260506174513 56 61 3.0 4.0 0.00 0.00 0.00 57 1013.6
20260506170015 57 35 4.0 6.0 0.00 0.00 0.00 56 1013.4
20260506164518 57 67 4.0 6.0 0.00 0.00 0.00 56 1013.4
20260506163013 58 69 5.0 11.0 0.00 0.00 0.00 56 1013.5
20260506161517 58 49 6.0 9.0 0.00 0.00 0.00 54 1013.4
20260506160021 58 61 6.0 10.0 0.00 0.00 0.00 53 1013.5
20260506154512 58 42 5.0 9.0 0.00 0.00 0.00 54 1013.5
20260506153023 59 10 5.0 10.0 0.00 0.00 0.00 53 1013.5
20260506151514 59 5 5.0 10.0 0.00 0.00 0.00 53 1013.6
20260506150018 58 62 6.0 11.0 0.00 0.00 0.00 54 1013.6